Regional Weather Roundup
Issued by NWS Mt. Holly, NJ

Home | Current Version | Previous Version | Text Only | Print | Product List | Glossary On
Versions: 1 2 3 4 5 6 7 8 9 10 11 12 13 14 15 16 17 18 19 20 21 22 23 24 25 26 27 28 29 30 31 32 33 34 35 36 37 38 39 40 41 42 43 44 45 46 47 48 49 50
000
ASUS41 KPHI 240811
RWRPHI

REGIONAL WEATHER ROUNDUP
NATIONAL WEATHER SERVICE MOUNT HOLLY NJ
300 AM EST FRI FEB 24 2017

NOTE:  "FAIR" INDICATES FEW OR NO CLOUDS BELOW 12,000 FEET WITH NO
SIGNIFICANT WEATHER AND/OR OBSTRUCTIONS TO VISIBILITY.

 * = STATION DOES NOT REPORT PRECIPITATION (E.G. RAIN, SNOW, ETC.)
        OR FOG.

NJZ015>026-240900-
SOUTHERN NEW JERSEY

CITY           SKY/WX    TMP DP  RH WIND       PRES   REMARKS
POMONA         CLEAR     54  50  86 S5        29.93F
WILDWOOD*      CLEAR     49  48  97 S6        29.95F
MILLVILLE      CLEAR     54  52  93 S3        29.92F
WRIGHTSTOWN    CLEAR     52  50  92 SW5       29.90S
MOUNT HOLLY    CLEAR     54  50  86 CALM      29.92S
TRENTON        PTCLDY    54  51  90 S5        29.91S

$$
NJZ001>014-240900-
NORTHERN NEW JERSEY

CITY           SKY/WX    TMP DP  RH WIND       PRES   REMARKS
SUSSEX         CLEAR     46  46 100 CALM      29.88F FOG
ANDOVER*         N/A     47  45  93 CALM      29.89S
MORRISTOWN       N/A     41  41 100 CALM      29.91R FOG
NEWARK         PTCLDY    55  50  83 S5        29.91R
TETERBORO      CLEAR     53  49  86 S3        29.90S
CALDWELL       CLEAR     47  45  93 CALM      29.91R
SOMERVILLE     CLEAR     45  42  89 CALM      29.89S
ALLAIRE*       CLEAR     57  52  83 SW9       29.93F
TOMS RIVER*    CLEAR     55  51  86 SW7       29.93F

$$
PAZ043-044-047-054-055-060>062-066>071-240900-
EASTERN PENNSYLVANIA

CITY           SKY/WX    TMP DP  RH WIND       PRES   REMARKS
PHILADELPHIA   CLEAR     54  50  86 S7        29.92F
NORTH PHILA    CLEAR     56  52  86 S3        29.93S
BLUE BELL*     CLEAR     52  50  93 CALM      29.90S
DOYLESTOWN     PTCLDY    55  51  86 S5        29.90S
QUAKERTOWN*    CLOUDY    54  50  87 SW5       29.91R
PERKASIE*      PTSUNNY   55  54  94 S3        29.91S
POTTSTOWN      PTCLDY    56  50  80 VRB3      29.91S
LANCASTER      CLOUDY    51  50  96 NE5       29.88S
COATESVILLE    CLEAR     54  52  94 VRB6      29.92S
READING        CLOUDY    59  52  77 SW7       29.88R
ALLENTOWN      CLOUDY    58  49  72 S5        29.88S
MOUNT POCONO   CLOUDY    51  51 100 CALM      29.89S
HAZLETON       CLOUDY    55  52  88 SE5       29.90S
LEHIGHTON      FAIR      43  43 100 CALM      29.89S FOG
WILKES BARRE   CLOUDY    56  54  93 CALM      29.86S

$$
DEZALL-MDZ008-012-015-019-020-240900-
DELAWARE AND EASTERN MARYLAND

CITY           SKY/WX    TMP DP  RH WIND       PRES   REMARKS
WILMINGTON     CLEAR     50  49  96 S5        29.92F
DOVER          CLEAR     53  53 100 S7        29.91F
GEORGETOWN     CLEAR     55  52  89 S7        29.94F
EASTON         CLEAR     55  51  85 S5        29.95F
ABERDEEN       CLEAR     45  45  98 CALM      29.91F FOG
PATUXENT       CLEAR     47  47 100 CALM      29.91F
OCEAN CITY     CLEAR     52  50  93 SW3       29.96S
WALLOPS ISLAND CLEAR     50  50 100 S5        29.95F
CAMBRIDGE      CLEAR     50  48  93 S6        29.93S
SALISBURY      CLEAR     50  50 100 SE3       29.94F

$$
PAZ001-021-NYZ056-072-MDZ011-DCZ001-240900-
OTHER NEARBY LOCATIONS

CITY           SKY/WX    TMP DP  RH WIND       PRES   REMARKS
HARRISBURG     CLOUDY    52  50  93 SE6       29.86S
STATE COLLEGE  CLOUDY    52  49  91 CALM      29.85S
WILLIAMSPORT   CLOUDY    50  48  93 CALM      29.84F
BINGHAMTON     CLOUDY    48  46  93 E7        29.86F FOG
NEW YORK CITY  CLEAR     60  51  72 SW5       29.93S
BALTIMORE      PTCLDY    49  47  93 CALM      29.90S
WASHINGTON DC  PTCLDY    56  52  86 S6        29.91R

$$



USA.gov is the U.S. government's official web portal to all federal, state and local government web resources and services.